Regional Weather Roundup
Issued by NWS Bismarck, ND

Home | Current Version | Previous Version | Text Only | Print | Product List | Glossary On
Versions: 1 2 3 4 5 6 7 8 9 10 11 12 13 14 15 16 17 18 19 20 21 22 23 24 25 26 27 28 29 30 31 32 33 34 35 36 37 38 39 40 41 42 43 44 45 46 47 48 49 50
000
ASUS43 KBIS 201620
RWRBIS

NWR BROADCAST TEXT
NATIONAL WEATHER SERVICE BISMARCK ND
1100 AM CDT SUN APR 20 2014

NOTE: "FAIR" INDICATES FEW OR NO CLOUDS BELOW 12,000 FEET WITH NO
SIGNIFICANT WEATHER AND/OR OBSTRUCTIONS TO VISIBILITY.


CITY           SKY/WX    TMP DP  RH WIND       PRES   REMARKS
WILLISTON      PTSUNNY   55  33  43 S7        29.84S
MINOT          MOSUNNY   59  35  40 SE9       29.87F
MINOT AFB      MOSUNNY   53  42  66 SE7       29.87F
BISMARCK       SUNNY     60  37  42 SE9       29.94F
DICKINSON      CLOUDY    59  31  34 S14       29.87S
GARRISON         N/A     56  36  47 S13       29.89F
HETTINGER ARPT MOSUNNY   61  31  32 S12G17    29.91F
JAMESTOWN      SUNNY     59  39  47 SE13      29.96F
CARRINGTON     FAIR      57  41  54 S18       29.96S
CROSBY         FAIR      57  34  41 S10       29.81F
HARVEY         FAIR      59  37  44 S14       29.93S
HAZEN          FAIR      63  30  29 S12G21    29.89F
LINTON         FAIR      64  32  29 S16       29.95S
MANDAN         FAIR      59  34  38 S14       29.94F
OAKES          FAIR      63  39  42 S8        29.99S
RUGBY          FAIR      54  39  58 S10       29.91F
STANLEY        FAIR      55  32  41 S10       29.85F
TIOGA          PTSUNNY   57  32  38 S12       29.87F
WATFORD CITY   FAIR      63  32  31 SW13      29.84R
$$

CITY           SKY/WX    TMP DP  RH WIND       PRES   REMARKS
GRAND FORKS    MOSUNNY   52  37  56 S8        30.01F
GRAND FORKS AF SUNNY     53  38  56 VRB6      30.01F
DEVILS LAKE    SUNNY     55  37  50 S15       29.96F
FARGO          SUNNY     59  36  42 S9        30.01S
CANDO          FAIR      50  37  62 S15G21    29.96F
CAVALIER       FAIR      46  34  61 E6        30.02F
GRAFTON        FAIR      46  36  66 E6        30.02S
GWINNER        SUNNY     64  37  36 SE14      30.01S
LANGDON        FAIR      54  36  50 SE12      29.97F
ROLLA          FAIR      46  39  76 S10G17    29.95F
WALHALLA         N/A     45  32  61 SE5       30.02F
$$

CITY           SKY/WX    TMP DP  RH WIND       PRES   REMARKS
ABERDEEN       SUNNY     59  38  45 SE5       30.00F
MOBRIDGE       SUNNY     60  32  34 S12       29.94S
BUFFALO          N/A     62  32  32 S8        29.85S
RAPID CITY     SUNNY     63  37  38 VRB7      29.92R
GLASGOW        PTSUNNY   57  29  34 W26G36    29.91R
SIDNEY         PTSUNNY   61  32  33 W21G26    29.88R
WOLF POINT     MOSUNNY   60  29  30 W28G37    29.88R
GLENDIVE       CLOUDY    57  27  30 NW32G47   29.91S
MILES CITY     CLOUDY    56  28  34 NW17G25   29.97R
BAKER          CLOUDY    57  34  41 W21       29.94R
$$

CITY           SKY/WX    TMP DP  RH WIND       PRES   REMARKS
BILLINGS       PTSUNNY   56  27  32 W17       30.05R
GREAT FALLS    SUNNY     50  18  28 W25G35    30.06R
REGINA         MOSUNNY   45  37  76 SE13G20   29.82S
ESTEVAN        CLOUDY    48  39  71 E7        29.84F
$$




USA.gov is the U.S. government's official web portal to all federal, state and local government web resources and services.